Location: ??????????
(31.2156°N, 29.9553°E)
Time: 04:19:30
(UTC+00:00)

Okean 1-7 - Pass Details

Date: 03 March 2021
Orbit: 589 x 619 km, 82.5° (Epoch: 14 April)

Event Time Altitude Azimuth Distance (km) Brightness Sun altitude
Rises 18:02:15 0° 346° (NNW) 2,878 6.8 -26.9°
Reaches altitude 10° 18:04:32 10° 341° (NNW) 1,965 5.9 -27.4°
Maximum altitude 18:08:42 47° 268° (W) 807 3.9 -28.2°
Enters shadow 18:08:54 46° 259° (W) 811 3.9 -28.3°
